Retour au catalogue

STARLINK-35622

ActifCommunicationsVLEO
NORAD 66103·PAYLOAD·🇺🇸 United States

Lancé Oct 19, 2025 depuis Vandenberg Space Force Base

Loading…

Prochains Passages (prochaines 24 heures)

TLE

FraisSource: CelesTrak SupGP

Époque: Sep 15, 2026, 04:02 UTC

1 66103C 25236T   26258.16854167  .00007528  00000+0  22236-3 0  2582
2 66103  53.1581 300.6069 0001177  91.6407 105.6474 15.34395015    12

Suivez STARLINK-35622 en temps réel avec AllMySat

Download on the App Store